Location: Unspecified
(40.9447°N, 78.9903°W)
Time: 21:57:04
(UTC-05:00)

CZ-3 Stage 3 - Visible Passes

Search period start: 21 November 2019 00:00
Search period end: 01 December 2019 00:00
Orbit: 408 x 34782 km, 30.5° (Epoch: 19 November)

Date Brightness Start Highest point End Pass type
(mag) Time Alt. Az. Time Alt. Az. Time Alt. Az.
21 Nov 6.7 02:35:23 10° SSW 04:46:48 33° S 04:56:42 10° ESE visible
21 Nov 8.0 21:39:28 10° SSE 00:32:45 19° SSE 01:09:13 10° ESE visible
24 Nov 6.7 00:47:02 10° SSW 04:36:29 34° S 04:46:29 10° ESE visible
24 Nov 7.9 21:23:24 10° SSE 00:23:00 20° SSE 00:59:41 10° ESE visible
26 Nov 6.6 23:10:02 10° SSW 04:26:11 35° S 04:36:14 10° ESE visible
27 Nov 7.9 21:07:29 10° SSE 00:13:10 21° SSE 00:50:04 10° ESE visible
29 Nov 6.6 22:34:17 10° SSW 04:15:52 36° S 04:26:01 10° ESE visible
